Stations météo

Publicité
Calvi, France (7754): Température de l'air & dewpoint: 20.03.2017 09:00:00 - 26.03.2017 09:00:00 (CEST)Calvi, France (7754): Température de l'air 5cm: 20.03.2017 09:00:00 - 26.03.2017 09:00:00 (CEST)Calvi, France (7754): Vitesse du vent & gusts: 20.03.2017 09:00:00 - 26.03.2017 09:00:00 (CEST)Calvi, France (7754): Direction du vent: 20.03.2017 09:00:00 - 26.03.2017 09:00:00 (CEST)Calvi, France (7754): reduced air pressure: 20.03.2017 09:00:00 - 26.03.2017 09:00:00 (CEST)Calvi, France (7754): visibility: 20.03.2017 09:00:00 - 26.03.2017 09:00:00 (CEST)Calvi, France (7754): Ensoleillement: 20.03.2017 09:00:00 - 26.03.2017 09:00:00 (CEST)Calvi, France (7754): Quantités de précipitations: 20.03.2017 09:00:00 - 26.03.2017 09:00:00 (CEST)
Date & Time tt [°C] td [°C] tt 5cm [°C] ff [km/h] ff [knt] fx [km/h] fx [knt] dd ppp [hPa] vv [km] sd [min] rr [mm]
26.03.2017 09:00:00 13,5 4,6 10,5 9 5 21 11 S 1020,2 30 60 0,0
26.03.2017 08:00:00 10,5 3,3 7,2 16 8 25 13 S 1020,0 30 10 0,0
26.03.2017 07:00:00 7,6 3,1 6,0 15 8 23 12 S 1020,0 60 0 0,0
26.03.2017 06:00:00 8,1 2,5 6,9 14 8 23 13 S 1020,5 60 0 0,0
26.03.2017 05:00:00 9,2 2,7 5,2 14 7 22 12 S 1020,5 60 0 0,0
26.03.2017 04:00:00 6,0 2,5 5,4 14 8 18 10 SSE 1020,8 60 0 0,0
26.03.2017 03:00:00 6,4 2,7 5,5 16 8 21 11 S 1020,9 60 0 0,0
26.03.2017 02:00:00 6,2 2,8 5,5 14 7 21 12 S 1021,1 60 0 0,0
26.03.2017 01:00:00 7,5 3,5 5,6 13 7 18 10 S 1021,5 60 0 0,0
26.03.2017 00:00:00 6,2 3,5 5,4 14 8 18 10 S 1021,5 60 0 0,0
25.03.2017 23:00:00 7,2 3,8 5,6 6 4 15 8 WSW 1021,3 60 0 0,0
25.03.2017 22:00:00 9,5 4,5 7,4 12 7 23 12 S 1020,9 60 0 0,0
25.03.2017 21:00:00 8,7 5,1 7,7 8 4 13 7 SSW 1020,8 32 0 0,0
25.03.2017 20:00:00 10,2 6,5 8,7 3 2 18 10 S 1020,5 33 0 0,0
25.03.2017 19:00:00 10,5 6,8 9,3 13 7 20 11 S 1019,5 60 0 0,0
25.03.2017 18:00:00 10,1 6,8 9,1 14 8 31 17 SSW 1020,1 49 0 2,6
25.03.2017 17:00:00 10,4 7,3 9,4 11 6 37 20 SSW 1021,1 7 0 5,1
25.03.2017 16:00:00 11,8 8,6 10,7 16 9 46 25 WSW 1020,3 4,5 0 3,0
25.03.2017 15:00:00 13,7 10,7 13,4 18 10 38 20 W 1018,8 13 0 0,0
25.03.2017 14:00:00 16,6 11,3 14,8 6 3 22 12 NNE 1018,8 16 0 0,0
25.03.2017 13:00:00 18,2 6,7 18,8 8 4 16 9 NW 1018,9 44 0 0,0
25.03.2017 12:00:00 19,3 5,7 20,5 4 2 15 8 W 1018,8 30 8 0,0
25.03.2017 11:00:00 18,9 9,1 18,6 6 3 11 6 NNE 1018,1 51 37 0,0
25.03.2017 10:00:00 16,4 9,8 14,7 6 3 9 5 ENE 1018,0 30 10 0,0
25.03.2017 09:00:00 13,7 7,2 11,1 5 3 14 8 S 1017,5 42 0 0,0
25.03.2017 08:00:00 11,3 4,7 9,5 6 4 16 9 SSW 1017,2 30 0 0,0
25.03.2017 07:00:00 10,2 4,1 9,1 14 8 19 11 S 1016,9 54 0 0,0
25.03.2017 06:00:00 9,7 4,3 8,0 7 4 15 8 S 1016,9 44 0 0,0
25.03.2017 05:00:00 9,8 4,2 7,9 9 5 19 10 S 1017,2 44 0 0,0
25.03.2017 04:00:00 8,6 4,0 7,7 11 6 14 8 S 1018,0 41 0 0,0
25.03.2017 03:00:00 9,2 4,4 7,8 3 2 16 9 S 1018,5 49 0 0,0
25.03.2017 02:00:00 10,5 5,0 8,7 8 5 16 9 SSW 1018,1 43 0 0,0
25.03.2017 01:00:00 10,8 4,9 9,0 7 4 16 9 NE 1017,0 46 0 0,0
25.03.2017 00:00:00 12,2 6,0 10,3 11 6 21 11 S 1016,7 49 0 0,0
24.03.2017 23:00:00 12,1 6,4 11,0 12 6 19 10 SSW 1016,9 47 0 0,0
24.03.2017 22:00:00 12,3 6,3 11,4 6 4 16 8 SSW 1017,2 41 0 0,0
24.03.2017 21:00:00 13,5 6,8 12,4 10 5 16 9 S 1016,9 41 0 0,0
24.03.2017 20:00:00 14,8 7,1 13,1 6 4 12 6 SSW 1016,5 23 0 0,0
24.03.2017 19:00:00 19,9 7,3 19,9 10 5 16 9 E 1016,1 19 47 0,0
24.03.2017 18:00:00 23,0 6,3 23,4 18 10 35 19 N 1015,4 46 53 0,0
24.03.2017 17:00:00 21,7 6,8 23,5 20 11 37 20 S 1015,6 30 38 0,0
24.03.2017 16:00:00 26,3 0,8 28,0 8 4 14 8 W 1015,0 40 55 0,0
24.03.2017 15:00:00 26,3 5,3 29,3 3 1 9 5 ESE 1015,3 30 53 0,0
24.03.2017 14:00:00 25,1 6,3 26,0 0 0 12 7 N 1015,9 60 38 0,0
24.03.2017 13:00:00 23,3 7,0 25,7 5 3 8 4 S 1016,2 50 0 0,0
24.03.2017 12:00:00 22,5 7,5 23,6 5 3 15 8 WNW 1017,0 20 25 0,0
24.03.2017 11:00:00 21,2 7,8 19,1 11 6 15 8 E 1017,5 20 60 0,0
24.03.2017 10:00:00 17,5 10,1 14,7 5 3 9 5 SSW 1018,2 19 5 0,0
24.03.2017 09:00:00 14,1 9,3 12,2 4 2 14 8 WSW 1017,7 20 0 0,0
24.03.2017 08:00:00 12,4 8,7 11,6 6 3 13 7 SSW 1016,6 20 0 0,0
24.03.2017 07:00:00 12,5 8,4 11,5 5 3 14 8 SSW 1016,7 27 0 0,0
24.03.2017 06:00:00 12,0 8,3 11,5 10 5 16 9 S 1016,7 26 0 0,0
24.03.2017 05:00:00 11,8 8,6 10,7 9 5 15 8 SSW 1017,0 18 0 0,0
24.03.2017 04:00:00 11,9 8,6 10,5 6 3 17 9 SSW 1017,3 17 0 0,0
24.03.2017 03:00:00 12,3 8,6 10,9 6 3 15 8 E 1018,0 20 0 0,0
24.03.2017 02:00:00 12,6 9,2 11,1 9 5 14 7 SSW 1017,8 20 0 0,0
24.03.2017 01:00:00 13,1 9,2 12,3 4 2 17 9 W 1017,5 20 0 0,0
24.03.2017 00:00:00 12,7 9,3 12,2 9 5 15 8 SSW 1016,8 19 0 0,0
23.03.2017 23:00:00 13,2 10,0 12,7 12 7 15 8 SSE 1016,9 18 0 0,0
23.03.2017 22:00:00 14,0 9,8 13,3 2 1 15 8 ENE 1017,1 18 0 0,0
23.03.2017 21:00:00 14,1 9,7 13,6 3 1 8 4 SSW 1017,2 18 0 0,0
23.03.2017 20:00:00 15,0 9,4 14,1 0 0 10 5 N 1016,9 17 0 0,0
23.03.2017 19:00:00 16,2 9,1 16,0 5 3 21 11 NNE 1016,4 19 0 0,0
23.03.2017 18:00:00 16,9 10,0 17,9 5 3 11 6 NW 1015,8 15 0 0,0
23.03.2017 17:00:00 17,2 10,8 18,3 5 3 13 7 N 1016,2 15 0 0,0
23.03.2017 16:00:00 17,0 10,1 17,7 7 4 21 11 N 1016,0 20 1 0,0
23.03.2017 15:00:00 16,5 10,1 18,0 14 8 22 12 N 1016,2 38 20 0,0
23.03.2017 14:00:00 17,8 10,2 19,5 11 6 19 11 N 1015,8 20 29 0,0
23.03.2017 13:00:00 17,5 9,4 19,5 14 8 21 11 N 1015,6 25 41 0,0
23.03.2017 12:00:00 17,9 10,0 20,2 11 6 18 10 N 1015,3 10 55 0,0
23.03.2017 11:00:00 16,3 9,0 15,9 3 1 9 5 E 1015,5 25 22 0,0
23.03.2017 10:00:00 13,5 9,2 12,8 0 0 11 6 N 1015,2 25 0 0,0
23.03.2017 09:00:00 11,9 8,7 10,5 8 4 14 7 S 1014,6 35 1 0,0
23.03.2017 08:00:00 10,3 7,9 9,2 12 6 15 8 SSE 1014,6 25 0 0,0
23.03.2017 07:00:00 9,2 7,3 7,4 10 5 13 7 SSW 1014,6 41 0 0,0
23.03.2017 06:00:00 8,4 6,2 7,5 4 2 13 7 SSW 1014,5 33 0 0,0
23.03.2017 05:00:00 9,0 7,0 7,0 10 5 16 9 S 1014,4 33 0 0,0
23.03.2017 04:00:00 7,5 5,5 6,9 9 5 13 7 S 1014,5 36 0 0,0
23.03.2017 03:00:00 8,2 6,2 7,1 8 4 13 7 S 1014,9 43 0 0,0
23.03.2017 02:00:00 8,0 6,0 7,0 5 3 12 6 S 1014,8 33 0 0,0
23.03.2017 01:00:00 8,5 6,5 7,4 7 4 10 5 SSW 1014,9 33 0 0,0
23.03.2017 00:00:00 9,0 6,6 8,2 6 3 12 6 S 1014,8 36 0 0,0
22.03.2017 23:00:00 10,0 7,4 8,9 8 4 11 6 SSW 1014,8 42 0 0,0
22.03.2017 22:00:00 11,4 8,3 10,7 8 4 11 6 S 1014,6 47 0 0,0
22.03.2017 21:00:00 13,2 9,1 12,0 2 1 11 6 SSW 1014,3 20 0 0,0
22.03.2017 20:00:00 13,5 9,2 13,1 8 4 13 7 E 1013,9 50 0 0,0
22.03.2017 19:00:00 16,1 9,3 16,8 8 4 20 11 N 1013,3 55 30 0,0
22.03.2017 18:00:00 17,7 8,3 20,0 13 7 27 15 SSW 1012,8 30 60 0,0
22.03.2017 17:00:00 18,6 8,5 23,4 16 9 33 18 S 1012,8 30 60 0,0
22.03.2017 16:00:00 19,5 9,1 22,7 18 10 31 17 SSW 1012,8 30 57 0,0
22.03.2017 15:00:00 19,8 9,7 23,7 14 8 24 13 S 1012,7 18 60 0,0
22.03.2017 14:00:00 19,8 8,8 22,2 14 7 27 15 SW 1012,7 30 60 0,0
22.03.2017 13:00:00 18,6 9,1 21,4 16 9 27 15 SW 1012,9 30 58 0,0
22.03.2017 12:00:00 17,7 9,8 17,0 6 4 18 10 S 1012,9 30 28 0,0
22.03.2017 11:00:00 15,9 9,6 16,4 6 3 16 8 N 1012,9 25 37 0,0
22.03.2017 10:00:00 14,5 9,5 13,4 4 2 8 4 N 1012,6 25 10 0,0
22.03.2017 09:00:00 12,2 8,7 10,3 0 0 11 6 N 1012,4 20 0 0,0
22.03.2017 08:00:00 10,5 7,4 8,1 9 5 15 8 S 1012,2 31 0 0,0
22.03.2017 07:00:00 9,1 6,5 8,3 3 1 9 5 ESE 1011,8 31 0 0,0
22.03.2017 06:00:00 9,9 6,6 8,7 6 4 10 6 SW 1011,4 25 0 0,0
22.03.2017 05:00:00 11,9 7,6 9,8 8 4 18 10 SSW 1011,3 18 0 0,0
22.03.2017 04:00:00 11,9 7,6 10,3 0 0 20 11 N 1012,0 18 0 0,0
22.03.2017 03:00:00 13,6 8,4 12,4 10 5 36 19 S 1012,2 22 0 0,0
22.03.2017 02:00:00 14,1 8,9 11,1 18 10 34 19 SSW 1012,4 22 0 0,0
22.03.2017 01:00:00 13,3 9,5 11,9 11 6 17 9 SSW 1012,8 26 0 0,0
22.03.2017 00:00:00 12,5 9,3 11,8 4 2 9 5 SE 1013,1 19 0 0,0
21.03.2017 23:00:00 13,2 10,0 12,3 3 1 7 4 ESE 1012,9 19 0 0,0
21.03.2017 22:00:00 13,6 10,2 13,3 6 3 10 6 WSW 1012,7 17 0 0,0
21.03.2017 21:00:00 14,2 10,8 14,0 8 4 13 7 NNE 1012,4 18 0 0,0
21.03.2017 20:00:00 14,6 10,8 14,5 5 3 9 5 ESE 1011,9 15 0 0,0
21.03.2017 19:00:00 15,2 10,6 15,6 4 2 8 4 N 1011,3 20 0 0,0
21.03.2017 18:00:00 15,5 11,1 16,5 4 2 9 5 NE 1011,3 15 0 0,0
21.03.2017 17:00:00 15,6 11,2 16,8 5 3 8 4 N 1011,4 15 0 0,0
21.03.2017 16:00:00 15,3 11,3 16,7 4 2 11 6 N 1011,6 10 0 0,0
21.03.2017 15:00:00 15,0 11,4 16,6 9 5 15 8 NE 1011,9 20 0 0,0
21.03.2017 14:00:00 15,6 11,6 16,6 6 3 25 14 NE 1012,4 20 0 0,0
21.03.2017 13:00:00 16,2 10,7 17,4 17 9 25 13 N 1012,4 20 6 0,0
21.03.2017 12:00:00 17,3 11,3 19,1 14 8 21 11 NNW 1012,3 17 60 0,0
21.03.2017 11:00:00 17,1 10,0 17,1 8 4 14 7 N 1012,2 10 60 0,0
21.03.2017 10:00:00 15,4 11,0 14,5 3 1 6 3 NNE 1012,1 19 24 0,0
21.03.2017 09:00:00 13,2 10,7 12,0 3 2 7 4 SW 1012,0 20 0 0,0
21.03.2017 08:00:00 12,0 9,9 11,8 8 4 10 5 S 1011,8 20 0 0,0
21.03.2017 07:00:00 12,0 10,1 11,7 8 4 10 5 S 1011,6 19 0 0,0
21.03.2017 06:00:00 12,0 9,9 11,7 6 3 7 4 SSW 1011,7 16 0 0,0
21.03.2017 05:00:00 12,2 10,1 11,9 3 2 8 4 SSW 1011,6 17 0 0,0
21.03.2017 04:00:00 12,2 10,1 11,9 3 1 7 4 SW 1011,9 15 0 0,0
21.03.2017 03:00:00 12,4 10,1 12,1 4 2 8 4 SSE 1012,4 17 0 0,0
21.03.2017 02:00:00 12,7 10,2 12,2 7 4 9 5 S 1012,7 19 0 0,0
21.03.2017 01:00:00 12,5 10,0 12,2 4 2 7 4 S 1012,9 20 0 0,0
21.03.2017 00:00:00 12,9 10,3 12,5 4 2 5 3 SSW 1013,2 20 0 0,0
20.03.2017 23:00:00 12,8 10,0 12,4 3 1 6 3 SW 1013,1 18 0 0,0
20.03.2017 22:00:00 13,0 10,0 12,6 5 3 6 4 SSE 1012,7 20 0 0,0
20.03.2017 21:00:00 14,1 10,3 13,6 4 2 6 3 WSW 1012,6 21 0 0,0
20.03.2017 20:00:00 14,5 10,3 14,3 4 2 11 6 SSW 1012,4 20 0 0,0
20.03.2017 19:00:00 14,7 10,5 14,9 6 4 10 6 S 1012,3 16 0 0,0
20.03.2017 18:00:00 15,1 10,1 15,4 5 3 12 6 SSW 1012,3 20 0 0,0
20.03.2017 17:00:00 15,0 10,4 15,6 7 4 11 6 S 1012,5 15 0 0,0
20.03.2017 16:00:00 14,7 10,9 15,5 0 0 10 5 N 1012,6 15 0 0,0
20.03.2017 15:00:00 14,7 11,3 15,4 9 5 19 11 N 1012,9 11 0 0,0
20.03.2017 14:00:00 15,4 11,2 16,4 15 8 19 11 N 1013,0 15 0 0,0
20.03.2017 13:00:00 15,8 10,3 17,8 14 8 18 10 N 1013,1 15 2 0,0
20.03.2017 12:00:00 15,8 10,3 17,9 9 5 13 7 N 1013,3 18 1 0,0
20.03.2017 11:00:00 15,1 10,3 17,0 5 3 12 7 N 1013,2 15 1 0,0
20.03.2017 10:00:00 14,3 10,1 12,2 0 0 6 3 N 1013,1 20 5 0,0
20.03.2017 09:00:00 - - - - - - - - - - - -

tt = Température de l'air
td = dewpoint
tt 5cm = Température de l'air 5cm
ff = Vitesse du vent
fx = gusts
dd = Direction du vent
ppp = reduced air pressure
vv = visibility
sd = Ensoleillement
rr = Quantités de précipitations

stations d'obs. à proximité